Weather History for Weaverville, CA

Change the Weather History Date:

Sunday, November 17, 2013

  Actual Average (KRDD) Record (KRDD)
Temperature  
Mean Temperature 42 °F -  
Max Temperature 55 °F 62 °F 80 °F (2005)
Min Temperature 28 °F 40 °F 29 °F (2014)
Degree Days  
Heating Degree Days 24    
Cooling Degree Days 0    
Moisture  
Dew Point 31 °F    
Average Humidity 76    
Maximum Humidity 93    
Minimum Humidity 41    
Precipitation  
Precipitation 0.00 in 0.15 in 2.40 in (2012)
Month to date precipitation 2.20  
Year to date precipitation 26.07  
Since 1 July precipitation 5.21  
Sea Level Pressure  
Sea Level Pressure 30.04 in    
Wind  
Wind Speed 0 mph (NNW)    
Max Wind Speed 5 mph    
Max Gust Speed -    
Visibility 10 miles    
Events      
T = Trace of Precipitation, MM = Missing Value Source: NWS Daily Summary

Daily Weather History Graph

Daily Weather History Graph

Search for Another Location

Airport:

Trip Planner

Search our weather history database for the weather conditions in past years. The results will help you decide how hot, cold, wet, or windy it might be!

Date:

Astronomy

Nov. 17, 2013 Rise Set
Actual Time 7:01 AM PST 4:51 PM PST
Civil Twilight 6:31 AM PST 5:21 PM PST
Nautical Twilight 5:58 AM PST 5:54 PM PST
Astronomical Twilight 5:26 AM PST 6:27 PM PST
Moon 5:12 PM PST (11/17) 7:00 AM PST (11/17)
Length of Visible Light 10h 49m
Length of Day
9h 50m
Full, 100% of the Moon is Illuminated
Nov 17
Full
Nov 25
Last Quarter
Dec 2
New
Dec 9
First Quarter
Dec 17
Full

Hourly Weather History & Observations

Time (PST) Temp. Windchill Dew Point Humidity Pressure Visibility Wind Dir Wind Speed Gust Speed Precip Events Conditions
12:15 AM 32.0 °F - 28.4 °F 87% 29.94 in 10.0 mi Calm Calm - N/A   Clear
12:35 AM 32.0 °F - 28.4 °F 87% 29.95 in 10.0 mi Calm Calm - N/A   Partly Cloudy
12:55 AM 32.0 °F - 28.4 °F 87% 29.95 in 10.0 mi Calm Calm - N/A   Partly Cloudy
1:15 AM 32.0 °F 28.7 °F 28.4 °F 87% 29.95 in 10.0 mi North 3.5 mph - N/A   Partly Cloudy
1:35 AM 32.0 °F - 28.4 °F 87% 29.95 in 10.0 mi Calm Calm - N/A   Clear
1:55 AM 32.0 °F - 28.4 °F 87% 29.96 in 10.0 mi Calm Calm - N/A   Partly Cloudy
2:15 AM 30.2 °F - 28.4 °F 93% 29.96 in 10.0 mi Calm Calm - N/A   Clear
2:35 AM 30.2 °F - 26.6 °F 86% 29.97 in 10.0 mi Calm Calm - N/A   Partly Cloudy
2:55 AM 30.2 °F - 26.6 °F 86% 29.97 in 10.0 mi Calm Calm - N/A   Partly Cloudy
3:15 AM 28.4 °F - 26.6 °F 93% 29.97 in 10.0 mi Calm Calm - N/A   Scattered Clouds
3:35 AM 28.4 °F - 26.6 °F 93% 29.98 in 10.0 mi Calm Calm - N/A   Scattered Clouds
3:55 AM 28.4 °F - 26.6 °F 93% 29.98 in 10.0 mi Calm Calm - N/A   Mostly Cloudy
4:15 AM 28.4 °F - 26.6 °F 93% 29.99 in 10.0 mi Calm Calm - N/A   Overcast
4:35 AM 28.4 °F - 26.6 °F 93% 29.99 in 10.0 mi Calm Calm - N/A   Overcast
4:55 AM 30.2 °F - 26.6 °F 86% 29.99 in 10.0 mi Calm Calm - N/A   Overcast
5:15 AM 32.0 °F - 28.4 °F 87% 29.99 in 10.0 mi Calm Calm - N/A   Overcast
5:35 AM 32.0 °F - 28.4 °F 87% 30.00 in 10.0 mi Calm Calm - N/A   Overcast
5:55 AM 32.0 °F - 28.4 °F 87% 30.00 in 10.0 mi Calm Calm - N/A   Overcast
6:15 AM 32.0 °F - 30.2 °F 93% 30.01 in 10.0 mi Calm Calm - N/A   Overcast
6:35 AM 32.0 °F - 30.2 °F 93% 30.02 in 10.0 mi Calm Calm - N/A   Overcast
6:55 AM 32.0 °F - 30.2 °F 93% 30.03 in 10.0 mi Calm Calm - N/A   Overcast
7:15 AM 32.0 °F - 30.2 °F 93% 30.04 in 10.0 mi Calm Calm - N/A   Overcast
7:35 AM 33.8 °F - 30.2 °F 87% 30.04 in 10.0 mi Calm Calm - N/A   Overcast
7:55 AM 33.8 °F - 32.0 °F 93% 30.05 in 5.0 mi Calm Calm - N/A   Overcast
8:15 AM 35.6 °F 32.8 °F 32.0 °F 87% 30.06 in 10.0 mi North 3.5 mph - N/A   Overcast
8:35 AM 35.6 °F - 32.0 °F 87% 30.06 in 9.0 mi Calm Calm - N/A   Overcast
8:55 AM 35.6 °F - 32.0 °F 87% 30.07 in 10.0 mi Calm Calm - N/A   Overcast
9:15 AM 35.6 °F - 32.0 °F 87% 30.08 in 10.0 mi Calm Calm - N/A   Overcast
9:35 AM 35.6 °F - 32.0 °F 87% 30.08 in 10.0 mi Calm Calm - N/A   Overcast
9:55 AM 37.4 °F - 32.0 °F 81% 30.09 in 10.0 mi Calm Calm - N/A   Overcast
10:15 AM 37.4 °F - 32.0 °F 81% 30.09 in 10.0 mi Calm Calm - N/A   Mostly Cloudy
10:35 AM 37.4 °F 34.9 °F 32.0 °F 81% 30.10 in 10.0 mi SSW 3.5 mph - N/A   Mostly Cloudy
10:55 AM 39.2 °F - 32.0 °F 75% 30.10 in 10.0 mi Calm Calm - N/A   Partly Cloudy
11:15 AM 41.0 °F - 32.0 °F 70% 30.09 in 10.0 mi Calm Calm - N/A   Clear
11:35 AM 44.6 °F - 32.0 °F 61% 30.08 in 10.0 mi Calm Calm - N/A   Clear
11:55 AM 44.6 °F - 32.0 °F 61% 30.07 in 10.0 mi Calm Calm - N/A   Clear
12:15 PM 46.4 °F 45.2 °F 32.0 °F 57% 30.06 in 10.0 mi SSW 3.5 mph - N/A   Clear
12:35 PM 48.2 °F - 32.0 °F 54% 30.06 in 10.0 mi Calm Calm - N/A   Clear
12:55 PM 50.0 °F - 33.8 °F 54% 30.05 in 10.0 mi Calm Calm - N/A   Clear
1:15 PM 50.0 °F - 33.8 °F 54% 30.05 in 10.0 mi SW 3.5 mph - N/A   Clear
1:35 PM 51.8 °F - 33.8 °F 50% 30.04 in 10.0 mi Calm Calm - N/A   Clear
1:55 PM 53.6 °F - 32.0 °F 44% 30.03 in 10.0 mi Calm Calm - N/A   Clear
2:15 PM 55.4 °F - 32.0 °F 41% 30.03 in 10.0 mi Calm Calm - N/A   Clear
2:35 PM 53.6 °F - 32.0 °F 44% 30.03 in 10.0 mi Calm Calm - N/A   Clear
2:55 PM 53.6 °F - 32.0 °F 44% 30.04 in 10.0 mi Calm Calm - N/A   Clear
3:15 PM 53.6 °F - 32.0 °F 44% 30.04 in 10.0 mi Calm Calm - N/A   Clear
3:35 PM 53.6 °F - 32.0 °F 44% 30.03 in 10.0 mi Calm Calm - N/A   Clear
3:55 PM 53.6 °F - 33.8 °F 47% 30.04 in 10.0 mi Calm Calm - N/A   Clear
4:15 PM 51.8 °F - 35.6 °F 54% 30.04 in 10.0 mi Calm Calm - N/A   Clear
4:35 PM 50.0 °F - 35.6 °F 58% 30.04 in 10.0 mi Calm Calm - N/A   Clear
4:55 PM 48.2 °F - 35.6 °F 62% 30.04 in 10.0 mi Calm Calm - N/A   Clear
5:15 PM 48.2 °F - 35.6 °F 62% 30.04 in 10.0 mi Calm Calm - N/A   Partly Cloudy
5:35 PM 46.4 °F - 33.8 °F 62% 30.05 in 10.0 mi Calm Calm - N/A   Scattered Clouds
5:55 PM 44.6 °F 42.2 °F 33.8 °F 66% 30.05 in 10.0 mi NE 4.6 mph - N/A   Partly Cloudy
6:15 PM 42.8 °F - 33.8 °F 70% 30.05 in 10.0 mi Calm Calm - N/A   Partly Cloudy
6:35 PM 42.8 °F - 32.0 °F 66% 30.05 in 10.0 mi Calm Calm - N/A   Clear
6:55 PM 41.0 °F - 32.0 °F 70% 30.05 in 10.0 mi Calm Calm - N/A   Partly Cloudy
7:15 PM 39.2 °F - 32.0 °F 75% 30.05 in 10.0 mi Calm Calm - N/A   Scattered Clouds
7:35 PM 39.2 °F - 32.0 °F 75% 30.06 in 10.0 mi Calm Calm - N/A   Mostly Cloudy
7:55 PM 39.2 °F - 32.0 °F 75% 30.06 in 10.0 mi Calm Calm - N/A   Mostly Cloudy
8:15 PM 39.2 °F - 32.0 °F 75% 30.06 in 10.0 mi Calm Calm - N/A   Mostly Cloudy
8:35 PM 37.4 °F - 32.0 °F 81% 30.06 in 10.0 mi Calm Calm - N/A   Scattered Clouds
8:55 PM 37.4 °F 34.9 °F 32.0 °F 81% 30.07 in 10.0 mi North 3.5 mph - N/A   Scattered Clouds
9:15 PM 35.6 °F - 32.0 °F 87% 30.07 in 10.0 mi Calm Calm - N/A   Partly Cloudy
9:35 PM 35.6 °F - 30.2 °F 81% 30.07 in 10.0 mi Calm Calm - N/A   Partly Cloudy
9:55 PM 33.8 °F - 30.2 °F 87% 30.07 in 10.0 mi Calm Calm - N/A   Scattered Clouds
10:15 PM 33.8 °F - 30.2 °F 87% 30.08 in 10.0 mi Calm Calm - N/A   Scattered Clouds
10:35 PM 33.8 °F - 30.2 °F 87% 30.08 in 10.0 mi Calm Calm - N/A   Scattered Clouds
10:55 PM 32.0 °F - 28.4 °F 87% 30.08 in 10.0 mi Calm Calm - N/A   Scattered Clouds
11:15 PM 32.0 °F - 28.4 °F 87% 30.08 in 8.0 mi Calm Calm - N/A   Scattered Clouds
11:35 PM 32.0 °F - 28.4 °F 87% 30.08 in 10.0 mi Calm Calm - N/A   Scattered Clouds
11:55 PM 32.0 °F - 28.4 °F 87% 30.08 in 10.0 mi Calm Calm - N/A   Partly Cloudy